Time,TemperatureF,DewpointF,PressureIn,WindDirection,WindDirectionDegrees,WindSpeedMPH,WindSpeedGustMPH,Humidity,HourlyPrecipIn,Conditions,Clouds,dailyrainin,SolarRadiationWatts/m^2,SoftwareType,DateUTC
2013-06-29 00:22:00,83.0,49.0,-100.00,West,264,5.0,12.0,31,0.00,,,0.00,201.000000,,2013-06-29 00:22:00,
2013-06-29 00:33:00,83.0,49.0,-100.00,West,264,5.0,12.0,31,0.00,,,0.00,201.000000,,2013-06-29 00:33:00,
2013-06-29 00:42:00,83.0,49.0,-100.00,West,264,5.0,12.0,31,0.00,,,0.00,201.000000,,2013-06-29 00:42:00,
2013-06-29 00:52:00,83.0,49.0,-100.00,West,264,5.0,12.0,31,0.00,,,0.00,201.000000,,2013-06-29 00:52:00,
2013-06-29 01:22:00,78.0,50.0,-100.00,West,270,5.0,12.0,37,0.00,,,0.00,63.000000,,2013-06-29 01:22:00,
2013-06-29 01:32:00,78.0,50.0,-100.00,West,270,5.0,12.0,37,0.00,,,0.00,63.000000,,2013-06-29 01:32:00,
2013-06-29 01:42:00,78.0,50.0,-100.00,West,270,5.0,12.0,37,0.00,,,0.00,63.000000,,2013-06-29 01:42:00,
2013-06-29 01:51:00,78.0,50.0,-100.00,West,270,5.0,12.0,37,0.00,,,0.00,63.000000,,2013-06-29 01:51:00,
2013-06-29 02:21:00,76.0,49.0,-100.00,West,274,5.0,11.0,39,0.00,,,0.00,64.000000,,2013-06-29 02:21:00,
2013-06-29 02:31:00,76.0,49.0,-100.00,West,274,5.0,11.0,39,0.00,,,0.00,64.000000,,2013-06-29 02:31:00,
2013-06-29 02:41:00,76.0,49.0,-100.00,West,274,5.0,11.0,39,0.00,,,0.00,64.000000,,2013-06-29 02:41:00,
2013-06-29 02:51:00,76.0,49.0,-100.00,West,274,5.0,11.0,39,0.00,,,0.00,64.000000,,2013-06-29 02:51:00,
2013-06-29 03:21:00,73.0,50.0,-100.00,WNW,303,5.0,11.0,44,0.00,,,0.00,10.000000,,2013-06-29 03:21:00,
2013-06-29 03:32:00,73.0,50.0,-100.00,WNW,303,5.0,11.0,44,0.00,,,0.00,10.000000,,2013-06-29 03:32:00,
2013-06-29 03:41:00,73.0,50.0,-100.00,WNW,303,5.0,11.0,44,0.00,,,0.00,10.000000,,2013-06-29 03:41:00,
2013-06-29 03:51:00,73.0,50.0,-100.00,WNW,303,5.0,11.0,44,0.00,,,0.00,10.000000,,2013-06-29 03:51:00,
2013-06-29 04:23:00,71.0,50.0,-100.00,WNW,297,6.0,14.0,47,0.00,,,0.00,1.000000,,2013-06-29 04:23:00,
2013-06-29 04:32:00,71.0,50.0,-100.00,WNW,297,6.0,14.0,47,0.00,,,0.00,1.000000,,2013-06-29 04:32:00,
2013-06-29 04:41:00,71.0,50.0,-100.00,WNW,297,6.0,14.0,47,0.00,,,0.00,1.000000,,2013-06-29 04:41:00,
2013-06-29 04:51:00,71.0,50.0,-100.00,WNW,297,6.0,14.0,47,0.00,,,0.00,1.000000,,2013-06-29 04:51:00,
2013-06-29 05:31:00,70.0,50.0,-100.00,WNW,295,5.0,13.0,50,0.00,,,0.00,0.000000,,2013-06-29 05:31:00,
2013-06-29 05:41:00,70.0,50.0,-100.00,WNW,295,5.0,13.0,50,0.00,,,0.00,0.000000,,2013-06-29 05:41:00,
2013-06-29 05:51:00,70.0,50.0,-100.00,WNW,295,5.0,13.0,50,0.00,,,0.00,0.000000,,2013-06-29 05:51:00,
2013-06-29 06:22:00,69.0,51.0,-100.00,NW,310,5.0,9.0,52,0.00,,,0.00,0.000000,,2013-06-29 06:22:00,
2013-06-29 06:33:00,69.0,51.0,-100.00,NW,310,5.0,9.0,52,0.00,,,0.00,0.000000,,2013-06-29 06:33:00,
2013-06-29 06:43:00,69.0,51.0,-100.00,NW,310,5.0,9.0,52,0.00,,,0.00,0.000000,,2013-06-29 06:43:00,
2013-06-29 06:53:00,69.0,51.0,-100.00,NW,310,5.0,9.0,52,0.00,,,0.00,0.000000,,2013-06-29 06:53:00,
2013-06-29 07:22:00,67.0,50.0,-100.00,WSW,245,2.0,10.0,55,0.00,,,0.00,0.000000,,2013-06-29 07:22:00,
2013-06-29 07:33:00,67.0,50.0,-100.00,WSW,245,2.0,10.0,55,0.00,,,0.00,0.000000,,2013-06-29 07:33:00,
2013-06-29 07:43:00,67.0,50.0,-100.00,WSW,245,2.0,10.0,55,0.00,,,0.00,0.000000,,2013-06-29 07:43:00,
2013-06-29 07:53:00,67.0,50.0,-100.00,WSW,245,2.0,10.0,55,0.00,,,0.00,0.000000,,2013-06-29 07:53:00,
2013-06-29 08:22:00,65.0,50.0,-100.00,WSW,249,0.0,5.0,59,0.00,,,0.00,0.000000,,2013-06-29 08:22:00,
2013-06-29 08:33:00,65.0,50.0,-100.00,WSW,249,0.0,5.0,59,0.00,,,0.00,0.000000,,2013-06-29 08:33:00,
2013-06-29 08:43:00,65.0,50.0,-100.00,WSW,249,0.0,5.0,59,0.00,,,0.00,0.000000,,2013-06-29 08:43:00,
2013-06-29 08:52:00,65.0,50.0,-100.00,WSW,249,0.0,5.0,59,0.00,,,0.00,0.000000,,2013-06-29 08:52:00,
2013-06-29 09:22:00,64.0,51.0,-100.00,NNE,20,1.0,4.0,62,0.00,,,0.00,0.000000,,2013-06-29 09:22:00,
2013-06-29 09:33:00,64.0,51.0,-100.00,NNE,20,1.0,4.0,62,0.00,,,0.00,0.000000,,2013-06-29 09:33:00,
2013-06-29 09:42:00,64.0,51.0,-100.00,NNE,20,1.0,4.0,62,0.00,,,0.00,0.000000,,2013-06-29 09:42:00,
2013-06-29 09:53:00,64.0,51.0,-100.00,NNE,20,1.0,4.0,62,0.00,,,0.00,0.000000,,2013-06-29 09:53:00,
2013-06-29 10:22:00,63.0,50.0,-100.00,NNE,17,3.0,5.0,63,0.00,,,0.00,0.000000,,2013-06-29 10:22:00,
2013-06-29 10:33:00,63.0,50.0,-100.00,NNE,17,3.0,5.0,63,0.00,,,0.00,0.000000,,2013-06-29 10:33:00,
2013-06-29 10:43:00,63.0,50.0,-100.00,NNE,17,3.0,5.0,63,0.00,,,0.00,0.000000,,2013-06-29 10:43:00,
2013-06-29 10:52:00,63.0,50.0,-100.00,NNE,17,3.0,5.0,63,0.00,,,0.00,0.000000,,2013-06-29 10:52:00,
2013-06-29 11:23:00,62.0,50.0,-100.00,NNE,14,4.0,6.0,65,0.00,,,0.00,0.000000,,2013-06-29 11:23:00,
2013-06-29 11:33:00,62.0,50.0,-100.00,NNE,14,4.0,6.0,65,0.00,,,0.00,0.000000,,2013-06-29 11:33:00,
2013-06-29 11:43:00,62.0,50.0,-100.00,NNE,14,4.0,6.0,65,0.00,,,0.00,0.000000,,2013-06-29 11:43:00,
2013-06-29 11:53:00,62.0,50.0,-100.00,NNE,14,4.0,6.0,65,0.00,,,0.00,0.000000,,2013-06-29 11:53:00,
2013-06-29 12:22:00,62.0,50.0,-100.00,North,10,2.0,6.0,65,0.00,,,0.00,7.000000,,2013-06-29 12:22:00,
2013-06-29 12:34:00,62.0,50.0,-100.00,North,10,2.0,6.0,65,0.00,,,0.00,7.000000,,2013-06-29 12:34:00,
2013-06-29 12:43:00,62.0,50.0,-100.00,North,10,2.0,6.0,65,0.00,,,0.00,7.000000,,2013-06-29 12:43:00,
2013-06-29 12:53:00,62.0,50.0,-100.00,North,10,2.0,6.0,65,0.00,,,0.00,7.000000,,2013-06-29 12:53:00,
2013-06-29 13:23:00,68.0,51.0,-100.00,NE,40,3.0,6.0,55,0.00,,,0.00,116.000000,,2013-06-29 13:23:00,
2013-06-29 13:34:00,68.0,51.0,-100.00,NE,40,3.0,6.0,55,0.00,,,0.00,116.000000,,2013-06-29 13:34:00,
2013-06-29 13:43:00,68.0,51.0,-100.00,NE,40,3.0,6.0,55,0.00,,,0.00,116.000000,,2013-06-29 13:43:00,
2013-06-29 13:53:00,68.0,51.0,-100.00,NE,40,3.0,6.0,55,0.00,,,0.00,116.000000,,2013-06-29 13:53:00,
2013-06-29 14:23:00,73.0,53.0,-100.00,NE,51,3.0,7.0,49,0.00,,,0.00,314.000000,,2013-06-29 14:23:00,
2013-06-29 14:34:00,73.0,53.0,-100.00,NE,51,3.0,7.0,49,0.00,,,0.00,314.000000,,2013-06-29 14:34:00,
2013-06-29 14:44:00,73.0,53.0,-100.00,NE,51,3.0,7.0,49,0.00,,,0.00,314.000000,,2013-06-29 14:44:00,
2013-06-29 14:53:00,73.0,53.0,-100.00,NE,51,3.0,7.0,49,0.00,,,0.00,314.000000,,2013-06-29 14:53:00,
2013-06-29 15:22:00,76.0,52.0,-100.00,ENE,57,3.0,6.0,43,0.00,,,0.00,501.000000,,2013-06-29 15:22:00,
2013-06-29 15:33:00,76.0,52.0,-100.00,ENE,57,3.0,6.0,43,0.00,,,0.00,501.000000,,2013-06-29 15:33:00,
2013-06-29 15:42:00,76.0,52.0,-100.00,ENE,57,3.0,6.0,43,0.00,,,0.00,501.000000,,2013-06-29 15:42:00,
2013-06-29 15:53:00,76.0,52.0,-100.00,ENE,57,3.0,6.0,43,0.00,,,0.00,501.000000,,2013-06-29 15:53:00,
2013-06-29 16:22:00,78.0,54.0,-100.00,SE,140,4.0,10.0,43,0.00,,,0.00,664.000000,,2013-06-29 16:22:00,
2013-06-29 16:33:00,78.0,54.0,-100.00,SE,140,4.0,10.0,43,0.00,,,0.00,664.000000,,2013-06-29 16:33:00,
2013-06-29 16:43:00,78.0,54.0,-100.00,SE,140,4.0,10.0,43,0.00,,,0.00,664.000000,,2013-06-29 16:43:00,
2013-06-29 16:53:00,78.0,54.0,-100.00,SE,140,4.0,10.0,43,0.00,,,0.00,664.000000,,2013-06-29 16:53:00,
2013-06-29 17:34:00,76.0,52.0,-100.00,SSW,203,6.0,12.0,43,0.00,,,0.00,506.000000,,2013-06-29 17:34:00,
2013-06-29 17:42:00,76.0,52.0,-100.00,SSW,203,6.0,12.0,43,0.00,,,0.00,506.000000,,2013-06-29 17:42:00,
2013-06-29 17:52:00,76.0,52.0,-100.00,SSW,203,6.0,12.0,43,0.00,,,0.00,506.000000,,2013-06-29 17:52:00,
2013-06-29 18:22:00,78.0,53.0,-100.00,South,178,5.0,13.0,42,0.00,,,0.00,567.000000,,2013-06-29 18:22:00,
2013-06-29 18:34:00,78.0,53.0,-100.00,South,178,5.0,13.0,42,0.00,,,0.00,567.000000,,2013-06-29 18:34:00,
2013-06-29 18:43:00,78.0,53.0,-100.00,South,178,5.0,13.0,42,0.00,,,0.00,567.000000,,2013-06-29 18:43:00,
2013-06-29 18:52:00,78.0,53.0,-100.00,South,178,5.0,13.0,42,0.00,,,0.00,567.000000,,2013-06-29 18:52:00,
2013-06-29 19:34:00,79.0,53.0,-100.00,SSE,148,7.0,16.0,40,0.00,,,0.00,773.000000,,2013-06-29 19:34:00,
2013-06-29 19:43:00,79.0,53.0,-100.00,SSE,148,7.0,16.0,40,0.00,,,0.00,773.000000,,2013-06-29 19:43:00,
2013-06-29 19:54:00,79.0,53.0,-100.00,SSE,148,7.0,16.0,40,0.00,,,0.00,773.000000,,2013-06-29 19:54:00,
2013-06-29 20:23:00,81.0,53.0,-100.00,East,81,6.0,15.0,38,0.00,,,0.00,765.000000,,2013-06-29 20:23:00,
2013-06-29 20:33:00,81.0,53.0,-100.00,East,81,6.0,15.0,38,0.00,,,0.00,765.000000,,2013-06-29 20:33:00,
2013-06-29 20:43:00,81.0,53.0,-100.00,East,81,6.0,15.0,38,0.00,,,0.00,765.000000,,2013-06-29 20:43:00,
2013-06-29 20:52:00,81.0,53.0,-100.00,East,81,6.0,15.0,38,0.00,,,0.00,765.000000,,2013-06-29 20:52:00,
2013-06-29 21:22:00,80.0,52.0,-100.00,ENE,63,6.0,15.0,38,0.00,,,0.00,831.000000,,2013-06-29 21:22:00,
2013-06-29 21:32:00,80.0,52.0,-100.00,ENE,63,6.0,15.0,38,0.00,,,0.00,831.000000,,2013-06-29 21:32:00,
2013-06-29 21:42:00,80.0,52.0,-100.00,ENE,63,6.0,15.0,38,0.00,,,0.00,831.000000,,2013-06-29 21:42:00,
2013-06-29 21:52:00,80.0,52.0,-100.00,ENE,63,6.0,15.0,38,0.00,,,0.00,831.000000,,2013-06-29 21:52:00,
2013-06-29 22:33:00,82.0,52.0,-100.00,North,7,6.0,17.0,35,0.00,,,0.00,798.000000,,2013-06-29 22:33:00,
2013-06-29 22:43:00,82.0,52.0,-100.00,North,7,6.0,17.0,35,0.00,,,0.00,798.000000,,2013-06-29 22:43:00,
2013-06-29 22:53:00,82.0,52.0,-100.00,North,7,6.0,17.0,35,0.00,,,0.00,798.000000,,2013-06-29 22:53:00,
2013-06-29 23:23:00,80.0,49.0,-100.00,ENE,58,8.0,19.0,34,0.00,,,0.00,672.000000,,2013-06-29 23:23:00,
2013-06-29 23:34:00,80.0,49.0,-100.00,ENE,58,8.0,19.0,34,0.00,,,0.00,672.000000,,2013-06-29 23:34:00,
2013-06-29 23:43:00,80.0,49.0,-100.00,ENE,58,8.0,19.0,34,0.00,,,0.00,672.000000,,2013-06-29 23:43:00,
2013-06-29 23:52:00,80.0,49.0,-100.00,ENE,58,8.0,19.0,34,0.00,,,0.00,672.000000,,2013-06-29 23:52:00,